Find Starlink 32350

NORAD ID: 61063 Int'l Des: 2024-164 Owner: SPXS Country: US Constellation: starlink operational
LEOCIRCULAR

リアルタイム位置

3D地球を読み込み中...

Starlink 32350について

説明を読み込み中...

次回通過

Passes for default location (London). Set your location on the main map for personalized predictions.

高度履歴

Loading altitude history...

軌道要素

1 61063U 24164P 26139.26134256 -.00000098 00000-0 86132-5 0 9996
2 61063 53.1606 123.2349 0001005 92.9373 267.1744 15.31689392 94283
Epoch: May 19, 2026 • Age: 7 hours

現在のステータス

高度 473.5 km
速度 7.63 km/s
衛星直下点 38.70°N, 168.4°W
打ち上げ日 Sep 13, 2024
運用期間 1.6 years
タイプ internet

技術仕様

分類 Payload
質量 730.00 kg
乾燥質量 700.00 kg
総質量 730.00 kg
長さ 0.30 m
直径 4.10 m
スパン 29.00 m
形状 Box + pan
製造者 SPXS
バスタイプ Starlink V2M
フェーズステータス In Orbit
所有者/国 SPXS/US

Most Searched